ROMMA est une association bénévole à but non lucratif. Votre soutien est indispensable : ADHERER à ROMMA ou FAIRE un DON

Val-d'Isère - (73, Savoie)

Haute-Maurienne (1850 m)   Longitude: 6° 58' 52'' E   Latitude: 45° 26' 53'' N Station partenaire n°93
 

Détail journalier du     <<     >>

Température Precipitation Humidité Vent Dir Rafale Dir. rafale Ensol.
Heure (°C) (mm) (%) (km/h) (km/h) (min)
01:00 -0.20903N11ONO0
02:00 -0.20902NNE10O0
03:00 -0.30902OSO11OSO0
04:00 -0.60924OSO16OSO0
05:00 -0.50922E15OSO0
06:00 -0.40922OSO10SO0
07:00 -0.80936OSO16OSO0
08:00 -0.909313OSO27OSO0
09:00 -0.409314OSO29OSO0
10:00 0.209311OSO27OSO30
11:00 1.20.88919OSO29O60
12:00 1.10.48719OSO29ONO30
13:00 1.708517OSO26OSO0
14:00 2.208617OSO31SO60
15:00 3.608410OSO26OSO30
16:00 4.10748E27OSO30
17:00 4.306411O32OSO30
18:00 1.409012OSO44O0
19:00 2.80726E18E0
20:00 0.60912OSO10SSE0
21:00 0.60915SE16ENE0
22:00 0.40936SO21NE0
23:00 0.00.2895E23O0
minuit -0.40846O29E0

Graphique du 27-04-2019

 

Serveur OMMA